Wind_Speed
15 15 15 16 16 16 15 14 12 11 11 10 10 11 12 10 10 10 9 10 9 6 6 15 21 22 21 17 14 11 9 8 6 5 5 4 3 2 3 4 4 4 4 3 2 3 3
17 18 18 18 18 18 18 17 15 13 13 12 11 12 11 11 12 11 10 11 12 7 6 15 21 23 22 19 17 14 12 10 9 9 8 7 6 5 4 4 4 5 5 6 7 8 7
18 20 20 20 21 21 20 19 18 17 16 15 14 13 13 13 14 12 11 11 12 12 9 13 20 23 23 22 20 19 16 14 13 13 12 12 10 10 9 8 8 8 7 8 8 10 12
22 22 23 24 23 22 22 21 21 21 20 19 18 15 15 15 16 15 15 14 16 16 15 13 19 23 25 24 23 22 22 20 19 17 16 16 15 14 14 12 12 12 12 11 11 11 11
24 25 24 26 27 27 25 25 25 25 25 22 21 18 17 17 17 17 17 18 19 19 19 18 18 23 28 28 27 27 26 24 23 21 20 20 20 19 19 18 17 17 15 14 15 14 14
19 26 28 28 28 30 30 30 29 29 27 25 23 21 21 18 18 19 19 19 20 19 19 22 23 24 27 28 31 31 29 27 26 26 25 24 24 23 23 23 21 21 19 16 17 17 17
23 22 25 29 30 32 33 32 31 29 29 28 26 24 24 21 22 21 21 19 21 22 23 24 25 27 28 29 28 29 30 30 29 28 27 26 25 24 24 24 22 21 21 19 17 19 20
30 27 25 27 27 30 33 35 35 33 31 29 27 26 27 27 26 23 21 21 22 21 20 19 19 21 24 27 28 28 27 26 25 23 23 22 22 21 20 20 20 20 20 20 19 18 20
33 33 30 30 28 25 26 29 32 35 37 33 32 30 30 27 25 24 22 22 21 20 16 14 12 13 13 15 17 20 21 22 21 20 18 18 16 17 17 18 19 19 21 22 20 20 19
35 38 36 35 32 29 26 25 27 29 33 33 30 28 26 26 25 25 24 23 22 19 15 13 12 11 11 10 10 10 12 13 13 13 14 13 13 15 15 16 18 18 21 23 24 25 23
38 37 41 39 38 34 32 28 27 25 27 33 31 30 27 26 26 26 25 24 22 19 16 14 12 12 12 12 11 10 10 11 11 12 12 13 13 13 15 17 19 21 24 26 28 30 31
39 40 38 45 42 39 37 35 31 29 25 25 29 29 28 27 27 28 28 26 24 22 19 14 14 13 14 14 14 14 13 13 13 13 13 14 15 16 17 19 21 25 27 31 33 33 34
39 41 43 41 49 46 44 42 40 34 32 27 26 29 30 30 29 30 29 28 27 24 19 19 18 17 17 16 16 16 16 16 16 15 15 15 16 18 19 22 25 27 29 33 36 33 33
47 43 45 42 50 47 47 47 45 41 37 35 31 30 31 32 32 32 31 31 29 23 24 21 18 18 18 19 18 18 18 18 18 18 18 17 17 20 22 26 28 29 30 32 37 37 39
54 52 48 47 48 54 52 48 49 47 44 41 40 35 34 34 34 34 34 34 28 28 27 26 24 23 22 21 20 21 21 22 21 20 21 20 23 25 26 27 29 30 32 34 38 41 42
61 60 57 57 57 54 55 48 56 54 49 47 46 43 40 39 38 38 39 35 33 32 32 32 30 29 25 25 26 26 27 25 24 24 25 27 32 28 28 31 32 36 38 39 41 46 47
69 67 65 62 62 60 53 51 52 58 54 55 52 50 46 45 44 45 44 40 37 36 36 38 36 36 32 31 31 30 31 27 29 29 31 34 35 32 32 34 36 39 42 44 45 47 50
76 74 71 66 65 62 61 56 54 57 58 54 58 56 53 52 50 49 46 44 42 41 42 43 42 40 38 36 36 36 33 31 32 35 37 37 39 37 38 40 42 43 44 46 50 49 53
83 80 75 73 67 64 62 64 66 62 60 55 58 58 57 56 56 53 50 48 46 44 45 46 44 41 40 40 39 38 37 36 38 40 41 39 42 42 42 43 46 48 48 51 52 53 54
87 85 78 74 72 69 63 60 57 57 69 67 65 57 54 58 60 59 56 53 51 49 49 49 49 46 44 43 40 42 41 39 40 42 42 43 44 44 46 48 51 51 50 53 55 58 53
83 81 79 76 69 68 69 65 64 60 60 55 57 59 55 55 56 58 63 58 53 53 54 53 53 50 48 48 46 43 42 42 44 44 45 47 47 48 48 50 52 52 54 56 57 55 59
66 69 70 72 72 69 64 71 68 60 58 61 62 63 56 54 56 56 56 54 55 57 55 51 52 53 54 52 50 49 47 48 48 49 49 51 53 52 53 53 55 55 59 55 55 54 57
53 54 57 62 65 68 65 61 61 63 58 58 62 64 58 48 46 53 52 53 56 54 54 54 53 54 54 54 54 52 51 50 51 52 54 56 57 58 61 59 58 62 58 59 57 57 57
50 50 49 52 54 56 64 61 53 54 63 55 59 52 60 54 46 47 44 49 53 57 55 52 53 54 54 53 55 56 56 54 53 54 55 58 60 62 64 65 67 65 66 63 59 58 59
47 49 47 48 47 48 53 60 58 55 55 61 61 54 50 51 46 49 45 48 46 41 43 45 50 52 53 54 54 54 53 53 53 55 58 59 61 62 64 65 69 70 68 62 60 61 58
46 47 46 44 45 44 47 52 55 54 52 50 55 59 52 57 51 51 53 51 47 45 46 53 54 50 51 51 53 54 54 56 60 61 62 62 61 62 64 66 68 66 61 61 60 59 60
46 45 44 43 42 41 43 47 53 50 50 50 51 48 55 61 63 50 50 50 48 45 44 44 51 53 54 56 58 59 60 59 61 63 64 64 65 61 59 61 63 59 57 57 59 62 62
40 42 43 41 39 40 41 43 46 48 49 51 54 52 54 56 61 61 53 53 51 51 48 49 49 53 55 53 55 57 59 62 64 66 65 61 58 58 59 59 57 56 56 57 59 60 59
32 36 40 40 37 37 36 37 38 41 41 48 51 52 54 56 57 61 66 60 60 57 56 61 55 55 59 60 61 63 62 61 63 60 59 59 60 59 57 55 54 56 60 62 61 58 56
Wind_Direction
244 238 229 228 226 230 234 234 240 252 264 261 259 259 260 265 265 266 267 265 268 298 263 196 190 189 191 195 199 196 200 207 219 233 240 256 277 336 31 19 25 348 330 295 264 239 251
254 250 247 242 239 238 240 242 248 254 264 266 259 259 261 264 266 269 265 257 254 258 264 206 195 195 201 205 209 214 212 221 233 244 255 259 271 285 303 316 329 339 323 304 291 287 279
249 254 253 251 248 244 245 247 252 260 266 268 262 259 260 257 260 259 251 243 252 251 242 227 206 204 209 214 218 224 226 231 243 251 258 264 270 277 287 291 296 304 305 297 288 287 289
249 248 254 257 255 252 252 254 260 264 267 267 265 259 256 257 258 253 251 253 260 255 243 237 225 217 221 223 227 232 236 241 249 256 260 268 271 275 279 285 290 289 292 291 286 278 275
258 252 251 255 257 257 255 256 260 264 267 267 267 258 258 257 254 254 255 264 264 254 245 239 239 231 229 232 235 239 243 248 253 258 265 272 275 277 280 284 287 287 285 287 285 277 269
274 262 256 251 256 260 258 257 258 262 264 266 266 262 260 260 258 259 259 263 259 252 244 242 243 242 238 240 242 244 248 253 257 262 267 271 275 278 279 281 283 287 286 286 287 287 278
274 272 271 257 252 254 258 259 256 257 259 262 262 258 260 263 264 264 263 259 257 255 252 251 249 247 244 245 247 252 254 256 260 263 269 273 275 277 280 280 281 282 283 284 276 274 272
273 271 267 269 260 255 255 256 258 257 257 257 257 257 260 265 262 261 260 259 259 255 255 253 252 252 251 250 251 253 255 257 260 264 265 268 271 276 279 281 283 283 284 281 278 272 269
266 268 265 266 265 263 260 257 258 261 259 257 260 262 263 261 256 256 251 256 255 256 248 246 238 238 240 247 247 246 248 251 255 258 261 264 271 275 279 281 283 285 285 284 285 280 278
276 267 265 265 262 262 260 261 257 258 262 258 256 257 254 252 255 253 251 250 253 252 245 240 239 232 231 234 233 232 235 239 243 247 251 260 269 276 277 282 284 285 283 287 288 287 286
278 274 264 263 261 262 262 260 259 252 254 260 254 252 250 248 249 250 251 249 250 246 243 241 233 233 238 238 237 237 235 241 246 250 258 263 271 274 278 283 285 285 287 287 287 287 287
264 267 268 262 259 261 263 264 259 259 251 255 258 250 247 246 249 252 252 249 245 239 235 238 234 234 235 236 242 243 245 248 251 252 254 259 264 273 278 284 288 290 289 286 285 286 287
258 258 257 269 257 255 262 264 263 256 256 248 253 257 251 248 247 248 249 246 240 234 236 235 236 237 237 243 244 249 248 247 247 250 255 262 270 277 284 289 289 290 289 287 285 284 285
258 247 251 258 260 257 275 257 258 257 253 253 245 244 251 252 247 245 246 243 240 237 237 236 233 235 237 241 246 247 245 243 246 253 258 264 274 282 284 285 285 285 284 283 285 288 287
255 249 244 242 247 263 270 263 252 253 252 250 250 243 240 245 249 248 246 244 240 239 241 242 241 239 241 247 249 249 247 247 254 257 260 267 278 280 282 282 282 283 280 279 280 283 285
250 251 249 243 243 249 259 265 253 249 249 249 248 246 244 241 243 246 246 244 245 245 245 244 244 243 244 249 252 250 249 248 250 253 261 276 281 280 279 281 282 280 280 281 281 281 284
246 246 247 246 245 244 244 250 258 248 250 251 247 245 243 244 243 243 246 247 248 249 249 249 249 249 249 252 257 256 255 252 253 260 270 278 278 278 280 283 283 285 285 285 284 286 288
245 243 240 238 242 241 236 239 242 247 245 248 250 246 244 244 244 244 244 245 246 248 250 251 251 252 253 254 256 256 257 257 259 265 272 275 275 278 282 282 282 283 284 284 283 286 287
245 243 240 238 234 236 237 241 239 244 246 247 243 244 244 244 245 245 245 246 247 246 249 251 252 252 254 255 257 258 258 259 262 268 271 270 272 281 284 285 285 287 286 285 285 286 291
253 247 244 241 237 233 232 238 236 244 248 254 246 242 245 248 246 246 246 246 246 247 248 251 251 253 254 255 259 264 264 265 266 267 268 270 275 281 283 286 289 289 287 287 290 291 294
254 254 255 249 242 240 232 231 238 238 241 241 244 241 240 241 243 248 246 247 248 250 250 251 252 253 256 255 257 265 267 268 268 270 271 272 276 280 284 286 288 287 287 288 290 293 292
252 253 252 249 250 251 243 232 232 235 239 240 239 249 245 238 239 241 246 246 251 250 251 253 256 255 255 257 260 263 264 266 269 269 271 273 278 281 284 285 285 285 284 287 289 290 291
246 248 247 249 250 246 244 242 239 228 239 247 243 245 242 245 247 240 242 250 252 252 253 256 257 258 257 256 258 261 265 266 269 271 272 273 279 282 283 284 283 285 288 287 287 289 290
241 241 243 245 246 247 239 240 238 231 229 239 242 252 254 253 253 243 248 253 250 249 253 259 263 261 259 260 265 266 266 267 269 270 272 275 278 279 280 281 284 288 288 286 287 289 291
241 237 238 243 243 242 242 238 239 237 230 233 240 243 256 261 255 243 243 244 242 246 252 259 256 257 262 267 267 265 265 267 271 272 274 277 278 278 280 283 286 288 287 289 289 289 290
238 234 235 238 242 239 240 240 242 240 237 234 234 235 241 247 251 249 251 254 253 252 256 254 253 260 264 263 263 264 266 270 272 275 276 276 278 280 282 283 284 286 287 288 287 286 289
235 233 231 235 236 236 236 237 241 241 237 241 238 241 240 243 246 250 262 265 259 255 257 258 257 259 260 262 263 265 267 269 272 275 276 277 278 280 280 281 283 286 285 285 286 290 292
235 232 229 233 237 236 236 235 238 242 241 240 246 245 249 241 244 245 248 256 261 265 263 267 266 262 260 257 262 264 265 270 272 274 274 274 277 279 280 283 282 282 283 287 289 291 292
233 230 229 232 237 238 237 238 238 240 245 243 243 249 253 252 250 247 246 247 250 253 255 255 261 265 260 255 255 259 261 263 268 267 269 272 276 279 278 278 278 281 284 288 291 291 290
Height
5839 5840 5839 5839 5838 5839 5839 5839 5838 5838 5838 5838 5839 5839 5840 5839 5839 5839 5839 5839 5839 5838 5836 5837 5838 5840 5842 5844 5846 5846 5847 5847 5848 5849 5849 5849 5848 5847 5846 5845 5844 5843 5842 5842 5841 5841 5841
5837 5838 5838 5838 5837 5837 5838 5838 5836 5836 5836 5836 5836 5837 5836 5836 5836 5836 5837 5837 5837 5837 5836 5836 5836 5838 5841 5842 5843 5844 5845 5845 5846 5847 5847 5847 5847 5846 5846 5844 5844 5843 5842 5841 5839 5838 5838
5832 5835 5836 5836 5836 5836 5836 5835 5835 5834 5834 5834 5833 5833 5833 5833 5833 5833 5834 5834 5834 5834 5834 5834 5835 5836 5838 5840 5840 5841 5842 5842 5843 5844 5844 5844 5844 5845 5844 5843 5842 5841 5841 5839 5838 5837 5836
5828 5828 5831 5832 5832 5832 5833 5833 5833 5832 5831 5830 5830 5830 5830 5830 5830 5830 5830 5830 5830 5830 5831 5831 5832 5833 5833 5835 5836 5837 5838 5839 5839 5840 5840 5840 5841 5841 5841 5841 5840 5839 5838 5836 5836 5835 5834
5826 5825 5825 5827 5828 5828 5828 5829 5829 5829 5828 5827 5827 5827 5826 5826 5826 5826 5827 5826 5826 5826 5827 5827 5828 5829 5829 5830 5831 5832 5833 5834 5835 5836 5836 5836 5836 5837 5837 5836 5836 5835 5834 5832 5831 5831 5830
5819 5821 5821 5821 5822 5823 5823 5823 5823 5824 5824 5823 5823 5823 5823 5822 5822 5822 5822 5822 5822 5822 5822 5822 5823 5825 5826 5826 5826 5827 5828 5830 5831 5831 5831 5831 5832 5831 5831 5830 5830 5829 5829 5829 5827 5826 5825
5816 5815 5816 5816 5816 5817 5818 5818 5818 5818 5818 5818 5818 5818 5819 5818 5818 5817 5818 5817 5819 5818 5817 5817 5818 5818 5818 5819 5821 5822 5823 5824 5825 5825 5826 5826 5826 5825 5825 5825 5824 5823 5822 5822 5822 5821 5819
5813 5811 5811 5812 5810 5810 5810 5812 5812 5812 5812 5812 5812 5813 5814 5813 5813 5812 5812 5812 5812 5812 5812 5812 5812 5812 5813 5813 5815 5816 5817 5818 5819 5819 5819 5820 5819 5819 5819 5819 5818 5817 5816 5816 5816 5815 5815
5807 5807 5806 5806 5806 5805 5804 5803 5804 5805 5806 5805 5806 5807 5807 5808 5808 5807 5807 5807 5807 5806 5806 5807 5807 5807 5808 5808 5808 5809 5810 5811 5812 5813 5813 5813 5814 5814 5814 5813 5813 5812 5810 5809 5810 5809 5809
5799 5800 5801 5800 5800 5800 5799 5798 5797 5797 5799 5799 5799 5800 5801 5802 5804 5802 5802 5802 5802 5801 5802 5803 5802 5803 5804 5804 5804 5804 5805 5807 5807 5808 5807 5808 5808 5809 5809 5809 5809 5808 5805 5803 5802 5801 5801
5790 5791 5792 5794 5794 5793 5794 5793 5793 5791 5791 5793 5793 5793 5794 5795 5796 5797 5798 5797 5797 5798 5798 5799 5798 5799 5800 5801 5801 5801 5802 5802 5802 5803 5804 5804 5803 5803 5803 5803 5802 5802 5799 5798 5795 5793 5792
5778 5780 5783 5785 5787 5787 5787 5787 5787 5787 5784 5784 5787 5787 5788 5788 5790 5792 5792 5791 5792 5794 5793 5794 5794 5794 5795 5796 5796 5796 5797 5797 5797 5798 5797 5798 5798 5798 5798 5797 5796 5795 5793 5790 5788 5786 5784
5766 5767 5770 5772 5776 5778 5780 5780 5780 5780 5780 5778 5779 5781 5782 5782 5783 5784 5785 5786 5787 5786 5790 5790 5789 5789 5790 5790 5791 5791 5792 5792 5792 5792 5792 5793 5793 5793 5792 5791 5790 5788 5786 5782 5779 5778 5777
5754 5754 5757 5759 5763 5767 5769 5771 5772 5772 5772 5773 5771 5773 5775 5776 5777 5777 5777 5779 5779 5783 5783 5783 5783 5783 5784 5784 5784 5784 5785 5785 5785 5785 5785 5786 5787 5786 5785 5783 5781 5780 5778 5775 5769 5768 5766
5740 5741 5743 5746 5748 5754 5756 5759 5761 5763 5763 5764 5765 5764 5766 5768 5770 5770 5770 5769 5774 5776 5777 5777 5776 5776 5777 5777 5777 5777 5778 5779 5779 5779 5779 5778 5779 5778 5776 5774 5773 5771 5768 5766 5761 5757 5753
5722 5727 5728 5733 5734 5737 5741 5744 5748 5751 5751 5753 5755 5756 5757 5757 5759 5761 5761 5764 5767 5769 5769 5769 5769 5770 5771 5771 5770 5770 5770 5773 5772 5772 5770 5770 5768 5770 5768 5766 5765 5761 5759 5757 5754 5747 5744
5704 5707 5711 5715 5718 5721 5726 5729 5734 5738 5738 5741 5743 5746 5748 5748 5749 5749 5752 5757 5759 5761 5762 5761 5762 5761 5763 5764 5763 5763 5762 5766 5764 5763 5761 5760 5758 5760 5758 5757 5754 5751 5748 5745 5742 5739 5734
5681 5686 5690 5695 5700 5705 5710 5714 5717 5722 5725 5727 5729 5732 5736 5736 5738 5738 5742 5747 5750 5751 5751 5751 5752 5753 5753 5755 5754 5753 5754 5755 5755 5754 5752 5751 5747 5748 5748 5746 5743 5740 5737 5734 5729 5728 5721
5657 5663 5668 5674 5680 5687 5693 5697 5700 5704 5708 5712 5714 5717 5720 5724 5725 5727 5731 5735 5737 5739 5739 5739 5741 5743 5744 5744 5744 5744 5745 5746 5744 5743 5740 5741 5737 5737 5736 5736 5732 5728 5725 5721 5718 5715 5711
5630 5638 5644 5653 5659 5666 5676 5679 5684 5687 5690 5696 5700 5702 5706 5709 5713 5716 5718 5721 5724 5727 5728 5727 5729 5731 5732 5733 5733 5731 5733 5734 5733 5732 5730 5728 5727 5728 5726 5723 5719 5715 5711 5707 5705 5700 5699
5610 5617 5624 5632 5640 5646 5653 5664 5668 5673 5671 5679 5683 5685 5689 5693 5698 5700 5702 5707 5711 5714 5714 5715 5716 5720 5720 5719 5720 5720 5721 5721 5720 5720 5719 5717 5716 5714 5713 5709 5706 5703 5698 5694 5690 5687 5681
5589 5597 5604 5613 5622 5630 5634 5642 5651 5660 5658 5659 5665 5672 5676 5678 5683 5687 5688 5695 5698 5698 5699 5703 5705 5705 5704 5706 5707 5707 5707 5706 5706 5706 5705 5704 5702 5701 5699 5695 5692 5690 5684 5683 5678 5674 5668
5575 5581 5588 5596 5603 5611 5620 5629 5635 5641 5642 5643 5647 5656 5660 5664 5668 5670 5675 5680 5682 5683 5687 5689 5690 5690 5691 5693 5692 5693 5693 5692 5693 5692 5690 5690 5688 5686 5684 5681 5677 5674 5674 5668 5663 5659 5652
5561 5568 5575 5582 5588 5595 5604 5614 5621 5622 5629 5633 5635 5639 5643 5651 5653 5656 5660 5664 5666 5668 5671 5673 5675 5676 5678 5677 5678 5679 5679 5679 5678 5678 5677 5676 5673 5668 5667 5664 5661 5662 5657 5653 5649 5643 5637
5549 5556 5563 5569 5574 5581 5588 5597 5605 5610 5615 5620 5624 5625 5628 5632 5640 5644 5646 5648 5651 5653 5656 5660 5661 5661 5662 5663 5663 5663 5664 5665 5667 5666 5664 5662 5657 5651 5648 5648 5648 5646 5641 5638 5632 5627 5621
5537 5545 5551 5558 5563 5570 5576 5582 5589 5595 5600 5606 5610 5613 5614 5620 5625 5630 5632 5635 5638 5641 5644 5648 5648 5647 5648 5649 5648 5648 5650 5650 5650 5651 5650 5647 5641 5638 5634 5631 5630 5631 5627 5622 5616 5614 5607
5525 5533 5540 5547 5553 5559 5564 5569 5575 5580 5587 5591 5597 5601 5605 5608 5613 5615 5618 5620 5625 5627 5629 5633 5635 5635 5636 5633 5633 5635 5635 5635 5634 5634 5634 5629 5625 5623 5618 5613 5615 5615 5610 5605 5601 5597 5590
5516 5523 5531 5537 5543 5548 5554 5559 5564 5568 5574 5578 5584 5588 5591 5596 5600 5603 5605 5609 5609 5613 5616 5619 5621 5622 5623 5621 5620 5619 5619 5619 5619 5617 5616 5613 5610 5609 5604 5600 5599 5598 5594 5590 5585 5579 5575
5509 5515 5522 5528 5534 5539 5543 5548 5553 5559 5560 5566 5573 5575 5579 5581 5588 5589 5591 5595 5598 5600 5603 5604 5606 5609 5608 5607 5606 5604 5604 5602 5602 5603 5601 5599 5599 5596 5593 5589 5583 5579 5575 5573 5569 5565 5561